This is the latest recevied weather packets stored in our database for station/object IW0REF-9. If no packets are shown the sender has not sent any weather packets the latest 10 day(s).
| Time | Temp. | Humidity | Pressure | Rain* | Wind** | Luminosity | Snow |
|---|---|---|---|---|---|---|---|
| 1777527877 | 17.78° C | 30% | 1000.7 hPa | - | - | - | - |
| 1777526977 | 21.67° C | 25% | 1000.6 hPa | - | - | - | - |
| 1777526077 | 16.67° C | 31% | 1000.3 hPa | - | - | - | - |
| 1777525176 | 16.11° C | 31% | 1000.2 hPa | - | - | - | - |
| 1777524275 | 16.11° C | 30% | 1000.4 hPa | - | - | - | - |
| 1777523375 | 16.11° C | 30% | 1000.2 hPa | - | - | - | - |
| 1777522474 | 16.11° C | 30% | 1000.1 hPa | - | - | - | - |
| 1777521573 | 16.11° C | 29% | 1000.1 hPa | - | - | - | - |
| 1777520672 | 16.67° C | 28% | 1000 hPa | - | - | - | - |
| 1777519772 | 17.22° C | 26% | 1000.2 hPa | - | - | - | - |
| 1777518871 | 17.22° C | 25% | 1000.3 hPa | - | - | - | - |
| 1777517970 | 17.78° C | 24% | 1000.4 hPa | - | - | - | - |
| 1777517070 | 17.78° C | 24% | 1000.5 hPa | - | - | - | - |
| 1777516169 | 17.78° C | 22% | 1000.5 hPa | - | - | - | - |
| 1777515269 | 18.33° C | 22% | 1000.5 hPa | - | - | - | - |
| 1777514368 | 18.33° C | 22% | 1000.5 hPa | - | - | - | - |
| 1777513467 | 18.33° C | 22% | 1000.5 hPa | - | - | - | - |
| 1777512567 | 18.33° C | 22% | 1000.6 hPa | - | - | - | - |
| 1777511666 | 18.89° C | 22% | 1000.4 hPa | - | - | - | - |
| 1777510765 | 18.89° C | 22% | 1000.2 hPa | - | - | - | - |
| 1777509864 | 18.89° C | 22% | 1000.2 hPa | - | - | - | - |
| 1777508963 | 18.89° C | 21% | 1000.2 hPa | - | - | - | - |
| 1777508062 | 18.89° C | 21% | 1000 hPa | - | - | - | - |
| 1777507162 | 18.89° C | 21% | 999.8 hPa | - | - | - | - |
| 1777506261 | 18.89° C | 21% | 999.8 hPa | - | - | - | - |
* Rain since midnight (hover to see other rain measurements)
** Current wind speed in m/s (hover to see current wind gust speed)